EW9965 Weather Reports


time (UTC)temp
C
wind
direction
speed
KPH
gust
KPH
rain 1hr
cm
rain 24hr
cm
rain mn
cm
humidity
%
barometer
mb
20260902160104 20 160 0.0 6.4 0.00 0.00 0.00 76 1016.2
20260902154555 20 230 0.0 8.0 0.00 0.00 0.00 77 1016.2
20260902153055 20 163 3.2 8.0 0.00 0.00 0.00 77 1016.0
20260902151552 18 197 3.2 6.4 0.00 0.00 0.00 77 1016.1
20260902150047 17 340 0.0 1.6 0.00 0.00 0.00 80 1016.3
20260902144543 16 18 3.2 8.0 0.00 0.00 0.00 81 1016.0
20260902143040 15 355 6.4 9.7 0.00 0.00 0.00 82 1016.1
20260902141548 15 36 1.6 8.0 0.00 0.00 0.00 84 1016.2
20260902140034 14 3 0.0 3.2 0.00 0.00 0.00 84 1016.1
20260902134531 14 6 0.0 0.0 0.00 0.00 0.00 84 1015.9
20260902133035 14 5 0.0 0.0 0.00 0.00 0.00 84 1015.7
20260902131526 15 5 0.0 0.0 0.00 0.00 0.00 84 1015.4
20260902130024 15 5 0.0 0.0 0.00 0.00 0.00 84 1015.1
20260902124526 15 5 0.0 6.4 0.00 0.00 0.00 84 1015.2
20260902123021 15 13 1.6 8.0 0.00 0.00 0.00 84 1015.3
20260902121518 16 1 0.0 6.4 0.00 0.00 0.00 83 1015.2
20260902120021 16 17 0.0 3.2 0.00 0.00 0.00 84 1015.1
20260902114516 17 36 0.0 3.2 0.00 0.00 0.00 83 1015.2
20260902113013 17 13 0.0 3.2 0.00 0.00 0.00 84 1015.3
20260902111513 17 36 1.6 4.8 0.00 0.00 0.00 83 1015.2
20260902110011 17 41 0.0 3.2 0.00 0.00 0.00 84 1015.3
20260902104516 17 7 1.6 4.8 0.00 0.00 0.00 84 1015.4
20260902103008 17 42 0.0 6.4 0.00 0.00 0.00 84 1015.6
20260902101509 17 20 0.0 0.0 0.00 0.00 0.00 85 1015.6
20260902100008 17 32 0.0 0.0 0.00 0.00 0.00 85 1015.7
20260902094506 17 5 0.0 3.2 0.00 0.00 0.00 85 1015.6
20260902093007 17 3 1.6 6.4 0.00 0.00 0.00 85 1015.6
20260902091506 17 31 0.0 1.6 0.00 0.00 0.00 84 1015.7
20260902090010 17 15 0.0 0.0 0.00 0.00 0.00 84 1015.8
20260902084504 17 4 0.0 0.0 0.00 0.00 0.00 84 1015.8
20260902083101 17 4 0.0 1.6 0.00 0.00 0.00 83 1015.8
20260902081556 17 4 1.6 3.2 0.00 0.00 0.00 83 1015.8
20260902080054 17 33 0.0 3.2 0.00 0.00 0.00 83 1015.9
20260902074552 17 357 1.6 3.2 0.00 0.00 0.00 82 1016.0
20260902073055 18 42 1.6 3.2 0.00 0.00 0.00 81 1016.1
20260902071551 18 28 0.0 3.2 0.00 0.00 0.00 81 1015.8
20260902070051 18 62 0.0 1.6 0.00 0.00 0.00 80 1015.6
20260902064547 18 78 0.0 1.6 0.00 0.00 0.00 79 1015.7
20260902063049 18 69 0.0 3.2 0.00 0.00 0.00 78 1015.6
20260902061557 18 135 0.0 3.2 0.00 0.00 0.00 77 1015.4
20260902060041 19 135 0.0 3.2 0.00 0.00 0.00 76 1015.2
20260902054543 19 135 0.0 3.2 0.00 0.00 0.00 75 1015.2
20260902053040 19 113 0.0 1.6 0.00 0.00 0.00 74 1015.2
20260902051539 20 113 0.0 0.0 0.00 0.00 0.00 73 1015.3
20260902050040 20 113 0.0 0.0 0.00 0.00 0.00 73 1015.2
20260902044538 20 113 0.0 1.6 0.00 0.00 0.00 72 1015.3
20260902043042 20 119 0.0 1.6 0.00 0.00 0.00 71 1015.1
20260902041549 21 119 0.0 3.2 0.00 0.00 0.00 71 1015.0
20260902040036 21 201 0.0 3.2 0.00 0.00 0.00 71 1014.5
20260902034536 21 167 0.0 6.4 0.00 0.00 0.00 70 1014.3
20260902033036 22 169 0.0 6.4 0.00 0.00 0.00 69 1014.3
20260902031536 22 178 0.0 3.2 0.00 0.00 0.00 68 1013.9
20260902030034 22 166 0.0 8.0 0.00 0.00 0.00 67 1013.9
20260902024536 23 163 3.2 11.3 0.00 0.00 0.00 64 1013.6
20260902023035 24 251 0.0 9.7 0.00 0.00 0.00 62 1013.5
20260902021533 25 217 3.2 8.0 0.00 0.00 0.00 59 1013.4
20260902020046 25 202 1.6 9.7 0.00 0.00 0.00 57 1013.3
20260902014531 26 161 1.6 11.3 0.00 0.00 0.00 54 1013.4
20260902013034 26 168 3.2 11.3 0.00 0.00 0.00 51 1013.2
20260902011529 27 271 6.4 12.9 0.00 0.00 0.00 49 1013.2
20260902010034 28 228 3.2 11.3 0.00 0.00 0.00 44 1013.3
20260902004528 28 172 1.6 12.9 0.00 0.00 0.00 41 1013.3
20260902003025 29 249 4.8 14.5 0.00 0.00 0.00 40 1013.3
20260902001524 30 201 3.2 12.9 0.00 0.00 0.00 39 1013.2
20260902000029 30 177 4.8 16.1 0.00 0.00 0.00 39 1013.2
20260901234522 30 252 8.0 14.5 0.00 0.00 0.00 37 1013.3
20260901233021 30 216 4.8 12.9 0.00 0.00 0.00 39 1013.4
20260901231522 30 290 6.4 17.7 0.00 0.00 0.00 40 1013.4
20260901230035 31 230 3.2 17.7 0.00 0.00 0.00 39 1013.4
20260901224523 31 200 6.4 19.3 0.00 0.00 0.00 39 1013.4
20260901223020 31 227 6.4 22.5 0.00 0.00 0.00 38 1013.4
20260901221525 32 225 6.4 17.7 0.00 0.00 0.00 36 1013.3
20260901220117 32 221 6.4 17.7 0.00 0.00 0.00 35 1013.2
20260901214515 32 274 4.8 12.9 0.00 0.00 0.00 34 1013.4
20260901213013 33 263 8.0 14.5 0.00 0.00 0.00 33 1013.6
20260901211512 33 203 8.0 16.1 0.00 0.00 0.00 36 1013.6
20260901210018 33 215 4.8 14.5 0.00 0.00 0.00 36 1013.6
20260901204510 33 228 3.2 14.5 0.00 0.00 0.00 34 1013.7
20260901203008 33 226 4.8 16.1 0.00 0.00 0.00 31 1013.8
20260901201502 33 139 4.8 12.9 0.00 0.00 0.00 32 1013.8
20260901200100 32 288 3.2 11.3 0.00 0.00 0.00 32 1014.0
20260901194603 32 218 3.2 12.9 0.00 0.00 0.00 33 1014.2
20260901193053 31 178 6.4 12.9 0.00 0.00 0.00 32 1014.2
20260901191559 31 124 1.6 11.3 0.00 0.00 0.00 34 1014.5
20260901190105 31 178 1.6 9.7 0.00 0.00 0.00 35 1014.5
20260901184546 30 127 6.4 14.5 0.00 0.00 0.00 39 1014.7
20260901183042 30 209 4.8 12.9 0.00 0.00 0.00 42 1014.8
20260901181539 29 201 4.8 9.7 0.00 0.00 0.00 44 1014.9
20260901180037 27 163 3.2 11.3 0.00 0.00 0.00 52 1015.0
20260901174536 27 280 3.2 8.0 0.00 0.00 0.00 55 1015.2
20260901173029 25 42 3.2 8.0 0.00 0.00 0.00 60 1015.2
20260901171527 25 122 6.4 11.3 0.00 0.00 0.00 61 1015.2
20260901170020 25 252 3.2 8.0 0.00 0.00 0.00 66 1015.3
20260901164517 24 301 1.6 9.7 0.00 0.00 0.00 67 1015.2
20260901163022 23 203 1.6 6.4 0.00 0.00 0.00 70 1015.1
20260901161511 22 185 3.2 9.7 0.00 0.00 0.00 74 1014.9